TimeCST,TemperatureF,Dew PointF,Humidity,Sea Level PressureIn,VisibilityMPH,Wind Direction,Wind SpeedMPH,Gust SpeedMPH,PrecipitationIn,Events,Conditions,WindDirDegrees,DateUTC
12:00 AM,-15,-23,50,30.01,15,SE,9.2,,,Snow,Snow,140,2012-11-09 06:00:00
12:00 AM,-14.8,-23.8,64,30.01,15.0,SE,8.1,-,N/A,,Clear,140,2012-11-09 06:00:00
1:00 AM,-14.8,-22.0,70,30.01,15.0,SE,8.1,-,N/A,,Clear,140,2012-11-09 07:00:00
2:00 AM,-13.0,-22.0,64,30.01,15.0,SE,8.1,-,N/A,,Clear,130,2012-11-09 08:00:00
2:46 AM,-9999,-9999,N/A,-9999,15.0,SE,9.2,-,N/A,,Unknown,130,2012-11-09 08:46:00
3:00 AM,-14.8,-22.0,70,30.01,15.0,SE,9.2,-,N/A,Snow,Light Snow,140,2012-11-09 09:00:00
4:00 AM,-14.8,-22.0,70,30.01,15.0,SE,9.2,-,N/A,Snow,Light Snow,130,2012-11-09 10:00:00
5:00 AM,-14.8,-23.8,64,30.01,15.0,SE,8.1,-,N/A,,Clear,130,2012-11-09 11:00:00
6:00 AM,-16,-24,51,30.01,15,SE,5.8,,,Snow,Snow,140,2012-11-09 12:00:00
6:00 AM,-16.6,-23.8,70,30.01,15.0,SSE,5.8,-,N/A,,Clear,150,2012-11-09 12:00:00
7:00 AM,-20.2,-27.4,69,30.01,15.0,Calm,Calm,-,N/A,,Partly Cloudy,0,2012-11-09 13:00:00
8:00 AM,-18.4,-27.4,63,30.01,15.0,Calm,Calm,-,N/A,,Partly Cloudy,0,2012-11-09 14:00:00
9:00 AM,-20.2,-29.2,63,30.01,15.0,ENE,2.3,-,N/A,,Partly Cloudy,60,2012-11-09 15:00:00
10:00 AM,-20.2,-27.4,69,30.01,15.0,Calm,Calm,-,N/A,,Partly Cloudy,0,2012-11-09 16:00:00
11:00 AM,-20.2,-29.2,63,30.02,15.0,Calm,Calm,-,N/A,,Partly Cloudy,0,2012-11-09 17:00:00
12:00 PM,-18,-26,51,30.01,15,Calm,Calm,,,Snow,Snow,,2012-11-09 18:00:00
12:00 PM,-18.4,-25.6,70,30.01,15.0,Calm,Calm,-,N/A,,Partly Cloudy,0,2012-11-09 18:00:00
1:00 PM,-16.6,-25.6,64,30.02,15.0,Calm,Calm,-,N/A,,Clear,0,2012-11-09 19:00:00
2:00 PM,-16.6,-25.6,64,30.02,15.0,East,2.3,-,N/A,,Clear,80,2012-11-09 20:00:00
3:00 PM,-16.6,-25.6,64,30.02,15.0,Calm,Calm,-,N/A,,Clear,0,2012-11-09 21:00:00
4:00 PM,-16.6,-25.6,64,30.02,12.0,Calm,Calm,-,N/A,,Clear,0,2012-11-09 22:00:00
5:00 PM,-18.4,-25.6,70,30.02,12.0,Calm,Calm,-,N/A,,Clear,0,2012-11-09 23:00:00
6:00 PM,-18,-26,51,30.02,15,Calm,Calm,,,Snow,Snow,,2012-11-10 00:00:00
6:00 PM,-16.6,-25.6,64,30.02,15.0,Calm,Calm,-,N/A,,Clear,0,2012-11-10 00:00:00
7:00 PM,-20.2,-27.4,69,30.02,15.0,Calm,Calm,-,N/A,,Clear,0,2012-11-10 01:00:00
8:00 PM,-20.2,-27.4,69,30.02,15.0,Calm,Calm,-,N/A,,Clear,0,2012-11-10 02:00:00
9:00 PM,-22.0,-29.2,69,30.02,15.0,Calm,Calm,-,N/A,,Clear,0,2012-11-10 03:00:00